TimeCST,TemperatureF,Dew PointF,Humidity,Sea Level PressureIn,VisibilityMPH,Wind Direction,Wind SpeedMPH,Gust SpeedMPH,PrecipitationIn,Events,Conditions,WindDirDegrees,DateUTC
12:35 AM,49.1,28.4,45,29.88,10.0,SSE,6.9,-,N/A,,Overcast,150,2013-03-05 06:35:00
12:55 AM,49.3,28.6,45,29.87,10.0,SSE,8.1,-,N/A,,Overcast,160,2013-03-05 06:55:00
1:15 AM,49.6,29.1,45,29.87,10.0,South,8.1,-,N/A,,Overcast,170,2013-03-05 07:15:00
1:35 AM,49.6,30.0,47,29.86,10.0,SSE,6.9,-,N/A,Rain,Light Rain,160,2013-03-05 07:35:00
1:55 AM,48.6,33.1,55,29.86,7.0,South,6.9,-,0.01,Rain,Rain,170,2013-03-05 07:55:00
2:15 AM,45.9,37.6,73,29.86,4.0,South,3.5,-,0.06,,Overcast,180,2013-03-05 08:15:00
2:35 AM,44.6,39.2,81,29.85,3.0,North,-9999.0,-,0.11,,Overcast,0,2013-03-05 08:35:00
3:15 AM,44.1,42.4,94,29.84,7.0,North,-9999.0,-,0.02,Rain,Rain,0,2013-03-05 09:15:00
3:35 AM,44.6,44.6,100,29.83,5.0,SE,5.8,-,0.07,Rain,Rain,140,2013-03-05 09:35:00
3:55 AM,44.6,44.6,100,29.83,7.0,SE,5.8,-,0.10,Rain,Rain,130,2013-03-05 09:55:00
4:15 AM,-9999,-9999,N/A,29.83,7.0,SE,6.9,-,0.01,Rain,Light Rain,130,2013-03-05 10:15:00
4:35 AM,-9999,-9999,N/A,29.83,10.0,SE,3.5,-,0.01,,Drizzle,130,2013-03-05 10:35:00
4:55 AM,45.1,45.1,100,29.83,10.0,SE,4.6,-,0.01,,Overcast,130,2013-03-05 10:55:00
5:15 AM,45.5,45.5,100,29.83,7.0,SE,4.6,-,0.01,Rain,Light Rain,140,2013-03-05 11:15:00
5:35 AM,45.5,45.5,100,29.82,5.0,ESE,5.8,-,0.03,Rain,Light Rain,110,2013-03-05 11:35:00
5:55 AM,-9999,-9999,N/A,29.81,7.0,ESE,5.8,-,0.05,Rain,Light Rain,120,2013-03-05 11:55:00
6:15 AM,-9999,-9999,N/A,29.81,7.0,SE,3.5,-,N/A,Rain,Light Rain,130,2013-03-05 12:15:00
6:55 AM,-9999,-9999,N/A,29.80,5.0,ESE,3.5,-,0.02,Rain,Light Rain,120,2013-03-05 12:55:00
7:15 AM,-9999,-9999,N/A,29.80,5.0,Calm,Calm,-,0.01,Rain,Rain,0,2013-03-05 13:15:00
7:35 AM,-9999,-9999,N/A,29.79,5.0,Calm,Calm,-,0.01,,Haze,0,2013-03-05 13:35:00
7:55 AM,-9999,-9999,N/A,29.78,4.0,ESE,3.5,-,0.02,Rain,Light Rain,120,2013-03-05 13:55:00
8:15 AM,-9999,-9999,N/A,29.78,3.0,Calm,Calm,-,N/A,Rain,Rain,0,2013-03-05 14:15:00
8:35 AM,-9999,-9999,N/A,29.78,2.5,Calm,Calm,-,N/A,,Overcast,0,2013-03-05 14:35:00
8:55 AM,-9999,-9999,N/A,29.76,2.5,Calm,Calm,-,N/A,,Overcast,0,2013-03-05 14:55:00
9:15 AM,-9999,-9999,N/A,29.77,1.8,Calm,Calm,-,N/A,Rain,Rain,0,2013-03-05 15:15:00
9:35 AM,-9999,-9999,N/A,29.75,1.2,East,4.6,-,0.07,Rain,Rain,90,2013-03-05 15:35:00
9:55 AM,-9999,-9999,N/A,29.73,1.5,East,3.5,-,0.10,Rain,Rain,100,2013-03-05 15:55:00
10:15 AM,-9999,-9999,N/A,29.73,2.0,Calm,Calm,-,N/A,Rain,Rain,0,2013-03-05 16:15:00
10:35 AM,-9999,-9999,N/A,29.73,1.5,Calm,Calm,-,0.03,Rain,Heavy Rain,0,2013-03-05 16:35:00
10:55 AM,-9999,-9999,N/A,29.70,1.2,Calm,Calm,-,0.06,Rain,Rain,0,2013-03-05 16:55:00
11:15 AM,-9999,-9999,N/A,29.70,2.0,South,4.6,-,N/A,Rain,Rain,170,2013-03-05 17:15:00
11:35 AM,-9999,-9999,N/A,29.68,2.0,South,4.6,-,0.04,Rain,Rain,190,2013-03-05 17:35:00
11:55 AM,-9999,-9999,N/A,29.65,3.0,SE,3.5,-,0.05,Rain,Light Rain,140,2013-03-05 17:55:00
12:15 PM,-9999,-9999,N/A,29.66,4.0,SW,4.6,-,N/A,,Haze,230,2013-03-05 18:15:00
12:55 PM,-9999,-9999,N/A,29.62,2.5,Calm,Calm,-,0.03,Rain,Heavy Rain,0,2013-03-05 18:55:00
1:15 PM,-9999,-9999,N/A,29.63,4.0,WNW,11.5,-,0.06,Rain,Light Rain,290,2013-03-05 19:15:00
1:35 PM,-9999,-9999,N/A,29.63,5.0,WNW,13.8,23.0,0.07,Rain,Light Rain,300,2013-03-05 19:35:00
1:55 PM,-9999,-9999,N/A,29.64,5.0,WNW,17.3,26.5,0.08,Rain,Rain,290,2013-03-05 19:55:00
2:15 PM,-9999,-9999,N/A,29.67,10.0,West,21.9,26.5,N/A,,Overcast,280,2013-03-05 20:15:00
2:35 PM,43.7,43.7,100,29.69,7.0,West,23.0,29.9,N/A,Rain,Rain,270,2013-03-05 20:35:00
2:55 PM,40.1,40.1,100,29.71,7.0,West,18.4,27.6,0.01,Rain,Light Rain,280,2013-03-05 20:55:00
3:15 PM,38.5,38.5,100,29.74,7.0,West,18.4,27.6,0.01,Rain,Rain,280,2013-03-05 21:15:00
3:35 PM,36.5,36.5,100,29.76,2.0,West,18.4,29.9,0.02,Snow,Light Snow,280,2013-03-05 21:35:00
3:55 PM,-9999,-9999,N/A,29.78,0.8,West,11.5,29.9,0.03,,Unknown,280,2013-03-05 21:55:00
4:15 PM,-9999,-9999,N/A,29.81,10.0,West,20.7,28.8,N/A,,Overcast,270,2013-03-05 22:15:00
4:35 PM,34.0,34.0,100,29.82,10.0,West,18.4,27.6,N/A,,Overcast,280,2013-03-05 22:35:00
4:55 PM,34.0,34.0,100,29.84,10.0,West,13.8,23.0,N/A,,Overcast,280,2013-03-05 22:55:00
5:15 PM,34.0,33.1,96,29.85,10.0,WNW,15.0,26.5,N/A,,Overcast,290,2013-03-05 23:15:00
5:35 PM,34.0,32.7,95,29.87,10.0,WNW,17.3,27.6,N/A,,Overcast,290,2013-03-05 23:35:00
5:55 PM,34.0,32.0,92,29.88,10.0,West,17.3,23.0,N/A,,Overcast,280,2013-03-05 23:55:00
6:15 PM,34.2,31.8,91,29.89,7.0,West,18.4,26.5,N/A,,Overcast,280,2013-03-06 00:15:00
6:35 PM,34.3,30.0,84,29.91,10.0,WNW,20.7,32.2,N/A,,Overcast,290,2013-03-06 00:35:00
6:55 PM,34.3,28.4,79,29.91,10.0,WNW,12.7,27.6,N/A,Snow,Light Snow,290,2013-03-06 00:55:00
7:15 PM,33.8,28.6,81,29.91,10.0,West,11.5,21.9,N/A,Snow,Light Snow,280,2013-03-06 01:15:00
7:35 PM,33.8,27.9,79,29.91,10.0,WNW,13.8,28.8,N/A,,Overcast,290,2013-03-06 01:35:00
7:55 PM,33.8,25.9,73,29.91,10.0,West,15.0,28.8,N/A,,Overcast,280,2013-03-06 01:55:00
8:15 PM,33.6,24.6,70,29.91,10.0,West,20.7,33.4,N/A,,Overcast,280,2013-03-06 02:15:00
8:35 PM,33.3,23.7,68,29.91,10.0,WNW,17.3,34.5,N/A,,Overcast,290,2013-03-06 02:35:00
8:55 PM,32.9,24.1,70,29.93,10.0,WNW,18.4,25.3,N/A,Snow,Light Snow,290,2013-03-06 02:55:00
9:15 PM,32.4,23.5,70,29.92,10.0,WNW,16.1,29.9,N/A,,Overcast,300,2013-03-06 03:15:00
9:35 PM,32.0,21.9,66,29.92,10.0,WNW,15.0,29.9,N/A,,Overcast,290,2013-03-06 03:35:00
9:55 PM,32.0,21.9,66,29.92,10.0,West,11.5,21.9,N/A,,Overcast,280,2013-03-06 03:55:00
10:15 PM,32.0,21.9,66,29.92,10.0,West,19.6,27.6,N/A,,Overcast,280,2013-03-06 04:15:00
10:35 PM,32.0,22.5,68,29.92,10.0,West,15.0,24.2,N/A,,Overcast,280,2013-03-06 04:35:00
10:55 PM,31.6,23.7,73,29.93,4.0,West,15.0,21.9,N/A,Snow,Light Snow,280,2013-03-06 04:55:00
11:15 PM,30.9,25.3,80,29.93,3.0,West,11.5,18.4,N/A,Snow,Light Snow,270,2013-03-06 05:15:00
11:35 PM,30.4,26.8,86,29.93,3.0,WSW,12.7,18.4,N/A,Snow,Light Snow,250,2013-03-06 05:35:00
11:55 PM,30.2,27.3,89,29.92,7.0,West,11.5,16.1,N/A,Snow,Light Snow,260,2013-03-06 05:55:00